STARLINK-33773, 63713

Orbit data source: Space-Track

STARLINK-33773, 63713 is a payload satellite owned by SpaceX/Seattle (US) in LEO that was launched on Mon, 28 Apr 2025 UTC via an FALCON 9 launch vehicle from the Air Force Western Test Range (AFWTR). Payload-class satellites include a variety of spacecraft equipped with specific instruments for various scientific and technological missions. These include communications satellites like Starlink; space stations such as the ISS; scientific satellites like the Hubble; Earth observation satellites from companies like Planet Labs, Umbra, and HawkEye 360; GPS; miniature CubeSats for education and research; and military/defense satellites.

Loading next visibility...
Identifier
63713, 2025-087S
Orbit
LEO
Country
Flag of USUS
Related business
Manufacturer
SpaceX/Seattle
Mission
Operational Commercial Communications
Bus & Motor
STARLINK V2MO, Unknown motor
Mass
575 kg wet, ~530 kg dry
Launch date (UTC)
2025-04-28 (8 months ago)
Launch vehicle
FALCON 9
Launch site
Air Force Western Test Range (AFWTR)
Object type
Payload
Rocket body
Debris
Shape & HBR
Box + 2 Pan, 17.7 m
Radar Cross Section
36.964 m², Large (>1 m²)

Expand to show TLE details & history
Last TLE update: 7 hours ago

TLE from 7 hours ago
0 STARLINK-33773
1 63713U 25087S   25349.90074304  .00023887  00000-0  81526-3 0  9995
2 63713  53.1597 248.5704 0001484  73.4451 286.6712 15.30230683 36375
Epoch: 2025-12-15T21:37Z
TLE epoch observation values (Epoch: 2025-12-15T21:37:04.198Z)
Latitude
-0.00009°
Longitude
-160.48982°
Altitude
475.732 km
Speed
7.629 km/s
True Right ascension
16h 34m 16s
True Declination
0° 00' 00"
Sunlit
Object was in daylight at epoch
Visualization orbit readout
Latitude
Unknown
Longitude
Unknown
Altitude
Unknown
Speed
Unknown
Apparent Right ascension
Unknown
Apparent Declination
Unknown
Sunlit
N/A
Visualization observer readout
Local Sidereal Time
03:06:51
Azimuth
Unknown
Elevation
Unknown
Doppler factor
Unknown
Orbital elements
Apogee altitude
476.397 km
Perigee altitude
474.363 km
Semi-major axis
6,853.517 km
Eccentricity
0.00015
Inclination
53.1597°
RAAN
248.5704°
Arg. of periapsis
73.4451°
True anomaly
286.65491°
Mean anomaly
286.6712°
Eccentric anomaly
286.66305°
Mean motion
3.82537 °/min
Orbital period
94.11 mins
BSTAR
0.00081526
Loading maneuver chart data...
Computing Atmospheric mass density...
Loading historical data...
Loading historical data...
Loading historical data...
Loading historical data...
Loading historical data...
Loading historical data...
Loading historical data...

Documentation

Showing up to 5 results
|